EW7293 Weather Reports


time (UTC)temp
C
wind
direction
speed
KPH
gust
KPH
rain 1hr
cm
rain 24hr
cm
rain mn
cm
humidity
%
barometer
mb
20260507094549 14 282 0.0 3.2 0.00 0.00 0.00 54 1013.3
20260507093028 15 286 0.0 0.0 0.00 0.00 0.00 53 1013.3
20260507091533 15 355 0.0 11.3 0.00 0.00 0.00 52 1013.1
20260507090005 15 355 1.6 12.9 0.00 0.00 0.00 51 1013.0
20260507084505 16 5 0.0 6.4 0.00 0.00 0.00 52 1012.9
20260507083045 16 325 0.0 14.5 0.00 0.00 0.00 52 1012.6
20260507081542 15 284 0.0 6.4 0.00 0.00 0.00 55 1012.5
20260507080024 15 319 0.0 9.7 0.00 0.00 0.00 54 1012.4
20260507074523 16 355 0.0 4.8 0.00 0.00 0.00 53 1012.4
20260507073006 16 333 0.0 16.1 0.00 0.00 0.00 52 1012.4
20260507071505 16 327 1.6 16.1 0.00 0.00 0.00 51 1012.4
20260507064553 16 341 4.8 24.1 0.00 0.00 0.00 50 1012.3
20260507063036 17 322 3.2 20.9 0.00 0.00 0.00 51 1012.5
20260507061534 17 5 0.0 12.9 0.00 0.00 0.00 50 1012.6
20260507060033 17 315 0.0 16.1 0.00 0.00 0.00 49 1012.6
20260507054540 17 311 4.8 19.3 0.00 0.00 0.00 47 1012.5
20260507053033 18 329 0.0 19.3 0.00 0.00 0.00 46 1012.4
20260507051530 18 329 14.5 24.1 0.00 0.00 0.00 45 1012.4
20260507050039 18 313 14.5 32.2 0.00 0.00 0.00 44 1012.3
20260507044528 19 292 20.9 30.6 0.00 0.00 0.00 42 1012.0
20260507043009 20 294 14.5 22.5 0.00 0.00 0.00 39 1012.3
20260507041511 21 322 0.0 9.7 0.00 0.00 0.00 36 1012.3
20260507040051 21 246 0.0 0.0 0.00 0.00 0.00 35 1012.0
20260507034549 21 249 0.0 19.3 0.00 0.00 0.00 33 1011.7
20260507033030 22 260 16.1 27.4 0.00 0.00 0.00 32 1011.6
20260507031532 22 260 9.7 27.4 0.00 0.00 0.00 32 1011.2
20260507030015 23 284 9.7 22.5 0.00 0.00 0.00 31 1011.2
20260507024511 23 262 0.0 17.7 0.00 0.00 0.00 31 1011.2
20260507023111 23 272 4.8 17.7 0.00 0.00 0.00 30 1011.1
20260507021613 23 284 0.0 17.7 0.00 0.00 0.00 30 1011.1
20260507020109 23 276 3.2 22.5 0.00 0.00 0.00 30 1011.0
20260507014541 23 284 9.7 24.1 0.00 0.00 0.00 30 1010.8
20260507013041 23 288 12.9 32.2 0.00 0.00 0.00 30 1010.7
20260507011521 23 286 8.0 19.3 0.00 0.00 0.00 30 1010.8
20260507010021 24 303 8.0 25.7 0.00 0.00 0.00 30 1010.7
20260507004556 24 283 3.2 22.5 0.00 0.00 0.00 31 1010.8
20260507003055 25 266 12.9 30.6 0.00 0.00 0.00 31 1010.6
20260507001554 25 246 19.3 30.6 0.00 0.00 0.00 30 1010.4
20260507000043 25 265 11.3 33.8 0.00 0.00 0.00 31 1010.3
20260506234519 26 304 17.7 29.0 0.00 0.00 0.00 29 1010.1
20260506233019 26 274 19.3 35.4 0.00 0.00 0.00 28 1010.0
20260506231600 27 294 17.7 30.6 0.00 0.00 0.00 29 1009.9
20260506230105 27 294 22.5 33.8 0.00 0.00 0.00 28 1009.8
20260506224544 28 287 22.5 35.4 0.00 0.00 0.00 29 1009.8
20260506223044 28 292 22.5 33.8 0.00 0.00 0.00 27 1009.8
20260506221533 29 285 16.1 38.6 0.00 0.00 0.00 27 1009.8
20260506220031 29 323 20.9 30.6 0.00 0.00 0.00 26 1009.7
20260506214528 29 307 8.0 27.4 0.00 0.00 0.00 24 1009.7
20260506213032 29 299 11.3 33.8 0.00 0.00 0.00 21 1009.8
20260506211537 28 319 22.5 38.6 0.00 0.00 0.00 22 1009.9
20260506210032 28 322 1.6 20.9 0.00 0.00 0.00 23 1010.0
20260506204523 29 252 19.3 25.7 0.00 0.00 0.00 25 1009.9
20260506203021 29 288 8.0 25.7 0.00 0.00 0.00 28 1010.0
20260506201506 28 298 8.0 20.9 0.00 0.00 0.00 26 1010.1
20260506200100 28 44 0.0 0.0 0.00 0.00 0.00 26 1010.2
20260506194543 28 251 4.8 22.5 0.00 0.00 0.00 27 1010.2
20260506193046 28 190 1.6 12.9 0.00 0.00 0.00 28 1010.4
20260506191518 27 263 3.2 19.3 0.00 0.00 0.00 28 1010.6
20260506190017 27 259 3.2 19.3 0.00 0.00 0.00 30 1010.6
20260506184600 27 253 12.9 25.7 0.00 0.00 0.00 28 1010.8
20260506183103 26 248 4.8 27.4 0.00 0.00 0.00 31 1010.9
20260506181542 26 250 4.8 17.7 0.00 0.00 0.00 31 1010.9
20260506180030 26 213 0.0 11.3 0.00 0.00 0.00 32 1011.1
20260506174512 25 244 1.6 11.3 0.00 0.00 0.00 35 1011.0
20260506173009 25 251 11.3 17.7 0.00 0.00 0.00 35 1011.2
20260506171549 25 242 1.6 17.7 0.00 0.00 0.00 36 1011.2
20260506170103 24 252 9.7 20.9 0.00 0.00 0.00 37 1011.3
20260506164526 23 273 12.9 19.3 0.00 0.00 0.00 38 1011.4
20260506163029 23 323 11.3 25.7 0.00 0.00 0.00 38 1011.5
20260506161504 22 308 12.9 29.0 0.00 0.00 0.00 39 1011.6
20260506160001 22 313 17.7 33.8 0.00 0.00 0.00 40 1011.8
20260506154600 22 305 19.3 27.4 0.00 0.00 0.00 41 1011.8
20260506153036 21 254 0.0 0.0 0.00 0.00 0.00 45 1011.8
20260506151518 20 263 1.6 20.9 0.00 0.00 0.00 47 1012.0
20260506150016 20 309 11.3 22.5 0.00 0.00 0.00 47 1011.9
20260506144558 19 289 1.6 19.3 0.00 0.00 0.00 49 1011.9
20260506143050 18 249 0.0 0.0 0.00 0.00 0.00 50 1011.9
20260506141529 16 194 0.0 0.0 0.00 0.00 0.00 55 1011.9
20260506140025 15 153 0.0 0.0 0.00 0.00 0.00 58 1011.9
20260506134503 14 151 0.0 0.0 0.00 0.00 0.00 61 1011.8
20260506133001 12 360 0.0 0.0 0.00 0.00 0.00 64 1011.6
20260506131548 12 360 0.0 0.0 0.00 0.00 0.00 65 1011.5
20260506130047 12 150 0.0 0.0 0.00 0.00 0.00 64 1011.3
20260506124546 12 151 0.0 0.0 0.00 0.00 0.00 62 1011.2
20260506123045 13 151 0.0 0.0 0.00 0.00 0.00 62 1011.1
20260506121544 12 150 0.0 0.0 0.00 0.00 0.00 62 1011.1
20260506120044 12 150 0.0 0.0 0.00 0.00 0.00 63 1010.9
20260506114547 12 150 0.0 0.0 0.00 0.00 0.00 64 1010.8
20260506113038 13 113 0.0 0.0 0.00 0.00 0.00 61 1010.7
20260506111519 13 113 0.0 0.0 0.00 0.00 0.00 59 1010.7
20260506110018 13 143 0.0 0.0 0.00 0.00 0.00 61 1010.6
20260506104635 13 142 0.0 0.0 0.00 0.00 0.00 60 1010.4
20260506103100 13 142 0.0 0.0 0.00 0.00 0.00 61 1010.4
20260506101541 14 148 0.0 0.0 0.00 0.00 0.00 60 1010.3
20260506100042 14 148 0.0 0.0 0.00 0.00 0.00 60 1010.2